Location: Rowland
(34.5359°N, 79.2929°W)
Time: 19:39:43
(UTC+00:00)

Vanguard 2 - Pass Details

Date: 03 October 2022
Orbit: 553 x 2933 km, 32.9° (Epoch: 06 December)

Event Time Altitude Azimuth Distance (km) Brightness Sun altitude
Rises 23:15:46 0° 284° (WNW) 6,213 14.0 -4.4°
Reaches altitude 10° 23:19:40 10° 280° (W) 5,407 13.5 -5.2°
Maximum altitude 23:36:08 57° 208° (SSW) 3,294 10.9 -8.6°
Drops below altitude 10° 23:52:08 10° 136° (SE) 5,248 11.3 -11.9°
Sets 23:55:52 0° 132° (SE) 6,024 11.6 -12.7°
Enters shadow 23:55:55 - 132° (SE) 6,033 11.6 -12.7°
